Regional Weather Roundup
Issued by NWS

Home | Current Version | Previous Version | Graphics & Text | Print | Product List | Glossary On
Versions: 1 2 3 4 5 6 7 8 9 10 11 12 13 14 15 16 17 18 19 20 21 22 23 24 25 26 27 28 29 30 31 32 33 34 35 36 37 38 39 40 41 42 43 44 45 46 47 48 49 50
000
ASUS43 KMPX 011810
RWRMN
WEATHER ROUNDUP FOR MINNESOTA
NATIONAL WEATHER SERVICE TWIN CITIES/CHANHASSEN MN
1200 PM CST SUN MAR 01 2015


NOTE: "FAIR" INDICATES FEW OR NO CLOUDS BELOW 12,000 FEET WITH NO
SIGNIFICANT WEATHER AND/OR OBSTRUCTIONS TO VISIBILITY. N/A MEANS
CURRENT SKY AND/OR WEATHER CONDITIONS ARE NOT AVAILABLE.

MNZ060>063-068>070-011900-
   Twin Cities Metro

CITY           SKY/WX    TMP DP  RH WIND       PRES   REMARKS
TWIN CITIES    MOSUNNY   22   5  48 W15       30.28R WCI   9
6HR MIN TEMP:  15; 6HR MAX TEMP:  22;

ST PAUL        MOSUNNY   24   5  44 W10       30.28S WCI  14
CRYSTAL        SUNNY     23   7  50 W15       30.26F WCI  10
LAKEVILLE      SUNNY     18   9  68 W16       30.28S WCI   3
EDEN PRAIRIE   SUNNY     22   5  48 W14       30.27F WCI   9
6HR MIN TEMP:  14; 6HR MAX TEMP:  22;

SOUTH ST PAUL  MOSUNNY   23   7  50 W12       30.27S WCI  11
LAKE ELMO      FAIR      23  10  58 W12       30.26S WCI  12
$$
MNZ001>005-007-008-013>017-022>024-027-028-011900-
   Northwest Minnesota

CITY           SKY/WX    TMP DP  RH WIND       PRES   REMARKS
BEMIDJI        MOSUNNY   17   7  66 W13G21    30.13R WCI   3
HALLOCK        MOSUNNY   14   9  79 NW9       30.19R WCI   2
ROSEAU         MOSUNNY   10   3  72 W8        30.14R WCI  -1
WARROAD        SUNNY      9   1  72 SW9       30.12S WCI  -5
THIEF RVR FALL PTSUNNY   10   3  72 W8        30.17R WCI  -1
CROOKSTON      FLURRIES  16  10  79 W13       30.21R WCI   2
FOSSTON        PTSUNNY   12   1  62 SW10      30.17R WCI  -1
DETROIT LAKES  MIX PCPN  18   9  68 W8        30.19S WCI   7
MOORHEAD       LGT SNOW  19  16  86 W10       30.23R WCI   8
PARK RAPIDS    SUNNY     18   7  62 W14       30.14F WCI   4
MAHNOMEN       LGT SNOW  13   7  76 W12       30.18S WCI  -1
$$
MNZ006-009>011-018-025>026-011900-
   North Central Minnesota

CITY           SKY/WX    TMP DP  RH WIND       PRES   REMARKS
BAUDETTE       PTSUNNY   11   2  67 W7        30.10R WCI   0
FLAG ISLAND    SUNNY     10   1  67 CALM      30.09R
INTL FALLS     PTSUNNY   13   3  64 W12       30.09R WCI  -1
6HR MIN TEMP:  -2; 6HR MAX TEMP:  13;

WASKISH        MOSUNNY   12   3  67 SW12      30.13S WCI  -2
BIG FORK       PTSUNNY   18   7  62 W12       30.10R WCI   5
LONGVILLE      SUNNY     19   5  53 SW8       30.14S WCI   9
GRAND RAPIDS   SUNNY     16   5  62 W9        30.11S WCI   4
CRANE LAKE     FAIR      18   1  49 W8        30.10S WCI   7
ORR            MOSUNNY   18   1  49 W9G18     30.05S WCI   6
COOK           MOSUNNY   18   3  53 W10       30.08R WCI   6
WALKER         FAIR      19   5  55 W12G21    30.13R WCI   6
$$
MNZ012-019>021-037-011900-
   Northeast Minnesota

CITY           SKY/WX    TMP DP  RH WIND       PRES   REMARKS
DULUTH         FAIR      20   5  52 W16       30.09S WCI   6
6HR MIN TEMP:  11; 6HR MAX TEMP:  20; 6HR PCP: TRACE;

ELY            SUNNY     19   1  45 W10G21    30.04S WCI   8
HIBBING        SUNNY     18   3  52 W10G18    30.10R WCI   6
EVELETH        SUNNY     18   5  57 SW15G22   30.09S WCI   3
DULUTH HARBOR  FAIR      21   7  53 SW12G18   30.17S WCI   9
SILVER BAY     SUNNY     27   5  39 SW8       30.05F WCI  18
GRAND MARAIS     N/A     26  12  55 SW13      30.06F WCI  15
G MARAIS ARPRT CLOUDY    19   3  49 W7G17     29.98F WCI  10
$$
MNZ029>031-032-039>041-046>048-054>057-064-011900-
   West Central Minnesota

CITY           SKY/WX    TMP DP  RH WIND       PRES   REMARKS
FERGUS FALLS   PTSUNNY   18   7  62 W10       30.27R WCI   6
MORRIS         PTSUNNY   25  10  54 W16       30.23S WCI  12
ALEXANDRIA     MOSUNNY   18   7  62 W15       30.22R WCI   4
ELBOW LAKE     FAIR      19  10  69 W9G17     30.23S WCI   8
WADENA         SUNNY     18   7  62 W12       30.19S WCI   5
APPLETON       MOSUNNY   27  12  54 W18       30.27S WCI  13
BENSON         CLOUDY    27  12  54 NW17G25   30.25F WCI  14
ORTONVILLE     MOSUNNY   27  10  50 W15G21    30.25S WCI  15
MADISON        SUNNY     27  12  54 W18       30.28R WCI  13
WILLMAR        FAIR      23  10  58 W12       30.27S WCI  12
$$
MNZ033>034-036-042>043-049>051-058-059-011900-
   Central Minnesota

CITY           SKY/WX    TMP DP  RH WIND       PRES   REMARKS
ST CLOUD       MOSUNNY   21   6  52 NW15G22   30.24S WCI   8
6HR MIN TEMP:   9; 6HR MAX TEMP:  21;

SAUK CENTRE    FAIR      20   9  63 W15G21    30.23S WCI   6
PAYNESVILLE    MOSUNNY   19   7  59 SW13G21   30.24F WCI   6
PINE RIVER     MOSUNNY   18   7  62 W8        30.19F WCI   7
BRAINERD       MOSUNNY   18   5  57 W13       30.19S WCI   5
STAPLES        FAIR      19   9  63 W15       30.19S WCI   5
LONG PRAIRIE   FAIR      19   7  58 SW14      30.22S WCI   6
LITTLE FALLS   MOSUNNY   19   5  53 W16       30.22F WCI   5
LITCHFIELD     SUNNY     21   9  58 W10       30.26F WCI  10
BUFFALO        SUNNY     21   7  53 W8        30.27F WCI  12
MAPLE LAKE     SUNNY     22  10  59 W10G16    30.26F WCI  11
$$
MNZ037-044-045-052-053-011900-
   East Central Minnesota

CITY           SKY/WX    TMP DP  RH WIND       PRES   REMARKS
PRINCETON      SUNNY     21   7  53 W14       30.23F WCI   8
MORA           SUNNY     21   5  49 W13       30.22F WCI   9
CAMBRIDGE      SUNNY     21   9  58 W12       30.22S WCI   9
RUSH CITY      SUNNY     21   7  54 W9        30.23S WCI  11
MOOSE LAKE     SUNNY     23   5  46 SW14      30.15S WCI  11
HINCKLEY       FAIR      21   7  53 W8G18     30.20S WCI  12
CLOQUET        SUNNY     19   3  49 W17G23    30.12S WCI   4
MCGREGOR       SUNNY     19   7  58 W15       30.16S WCI   5
$$
MNZ071>073-080-081-089-090-097-098-011900-
   Southwest Minnesota

CITY           SKY/WX    TMP DP  RH WIND       PRES   REMARKS
MONTEVIDEO     MOSUNNY   28  12  50 NW12      30.28S WCI  18
GRANITE FALLS  SUNNY     26  13  58 W16       30.29F WCI  13
CANBY          SUNNY     26  11  54 W16       30.29S WCI  13
MARSHALL       SUNNY     25   9  50 W22       30.29F WCI  10
REDWOOD FALLS  SUNNY     25  11  55 W20       30.29F WCI  11
OLIVIA         SUNNY     23  12  63 W12       30.27F WCI  12
PIPESTONE      SUNNY     21  14  73 W16       30.28S WCI   7
WINDOM         MOSUNNY   25  12  58 W14       30.29S WCI  13
WORTHINGTON    SUNNY     32  10  40 W18       30.31S WCI  20
JACKSON        PTSUNNY   25  10  54 W16       30.30S WCI  12
TRACY          MOSUNNY   27  14  58 W9G17     30.28F WCI  17
SLAYTON        SUNNY     24  10  55 W16       30.28S WCI  10
$$
MNZ065>067-074>077-082>085-091>093-011900-
   South Central Minnesota

CITY           SKY/WX    TMP DP  RH WIND       PRES   REMARKS
MANKATO        SUNNY     19   7  58 W14       30.30F WCI   6
NEW ULM        SUNNY     19   9  63 W12       30.30F WCI   7
ST JAMES       MOSUNNY   25  10  54 W13       30.32S WCI  13
FAIRMONT       PTSUNNY   25  10  54 NW15      30.30S WCI  12
GLENCOE        SUNNY     22  11  62 W8        30.28F WCI  13
FARIBAULT      SUNNY     19   9  63 W12       30.29S WCI   7
OWATONNA       SUNNY     19   7  58 W16       30.29R WCI   5
WASECA         SUNNY     19   9  63 W13G18    30.31S WCI   7
ALBERT LEA     MOSUNNY   21   9  58 W12G18    30.29S WCI   9
$$
MNZ078>079-086>088-094>096-011900-
   Southeast Minnesota

CITY           SKY/WX    TMP DP  RH WIND       PRES   REMARKS
ROCHESTER      PTSUNNY   19   9  65 W15       30.26S WCI   5
6HR MIN TEMP:  11; 6HR MAX TEMP:  19; 6HR PCP: TRACE;

RED WING       MOSUNNY   21   7  53 NW15      30.28R WCI   8
STANTON        MOSUNNY   20   8  59 W13       30.28R WCI   7
DODGE CENTER   SUNNY     18   9  68 W18G24    30.26S WCI   2
WINONA         CLOUDY    25  14  63 NW7       30.29F WCI  17
AUSTIN         MOSUNNY   19   7  58 W14G22    30.28S WCI   6
PRESTON        CLOUDY    19  11  71 W14       30.27F WCI   6
$$
ABBREVIATIONS USED IN REMARKS
   TC - TEMPERATURES IN CELSIUS
  WCI - WIND CHILL INDEX
   HX - HEAT INDEX
  VSB - VISIBILITY
$$


USA.gov is the U.S. government's official web portal to all federal, state and local government web resources and services.